SBIRS GEO-4 (USA 273)

Last updated on Fri Apr 18 2025 00:02:41 GMT+0000 (Coordinated Universal Time)

1 41937U 17004A 25107.56777666 -.00000066 00000+0 00000+0 0 9992 2 41937 1.5720 23.6437 0002102 350.9968 206.3167 1.00004069 30335
UTC large
Height (km)
Speed (km/s)
/
Latitude / Longitude
Inclination (degrees)
Orbital Period (minutes)
Azimuth
Elevation
Range (km)
Doppler Factor

Next 0 passes for location: London (51.5072 / 0.1276)

Sorry there are no passes over London.